Regional Weather Roundup
Issued by NWS Sterling, VA

Home | Current Version | Previous Version | Graphics & Text | Print | Product List | Glossary On
Versions: 1 2 3 4 5 6 7 8 9 10 11 12 13 14 15 16 17 18 19 20 21 22 23 24 25 26 27 28 29 30 31 32 33 34 35 36 37 38 39 40 41 42 43 44 45 46 47 48 49 50
000
ASUS41 KLWX 270510
RWRLWX

REGIONAL WEATHER ROUNDUP
NATIONAL WEATHER SERVICE BALTIMORE MD/WASHINGTON DC
1200 AM EST TUE JAN 27 2015

Note: "FAIR" indicates few or no clouds below 12,000 feet
with no significant weather and/or obstructions to visibility.
 TC=TEMPERATURE CELSIUS

 * =Non NWS site. Station does not report precipitation (e.g. rain,
    snow, etc.), thunder, or fog.

DCZ001-MDZ009-015-VAZ040>042-051-053>054-270600-
WASHINGTON METRO

CITY           SKY/WX    TMP DP  RH WIND       PRES   REMARKS
WASHINGTON NAT LGT SNOW  30  23  75 NW20G25   29.76S WCI  17
DULLES         LGT SNOW  27  23  85 N14       29.75S FOG     WCI  16
FT BELVOIR     FLURRIES  28  23  80 NW13      29.76S WCI  18
QUANTICO       LGT RAIN  30  24  78 NE9G20    29.76F WCI  22
COLLEGE PARK*  CLOUDY    28  25  86 N7        29.75S
LEESBURG*      LGT SNOW  28  28 100 N12       29.77S WCI  18
MANASSAS*      CLOUDY    28  28 100 N10       29.76S WCI  19
GAITHERSBURG*  CLOUDY    25  19  80 NW7       29.78S

$$

MDZ006>007-011-014-270600-
BALTIMORE METRO

CITY           SKY/WX    TMP DP  RH WIND       PRES   REMARKS
BWI AIRPORT    LGT SNOW  26  22  84 N9G17     29.74S FOG     WCI  17
MD SCIENCE CTR   N/A     26  22  84 MISG      29.74S
MARTIN STATE   PTCLDY    30  27  86 NW8       29.75S WCI  23
ANNAPOLIS      CLOUDY    29  25  85 NW12      29.72F WCI  19
FORT MEADE*    CLOUDY    27  23  86 NE5       29.76S

$$

MDZ012-015-019>023-270600-
MARYLAND EASTERN SHORE

CITY           SKY/WX    TMP DP  RH WIND       PRES   REMARKS
OCEAN CITY     CLOUDY    34  30  85 N20G33    29.60S WCI  23
SALISBURY      CLOUDY    34  28  79 N13       29.64R WCI  25
BAY BRIDGE AP*   N/A     30  27  86 N14       29.72F WCI  20
CAMBRIDGE*     CLOUDY    32  28  86 CALM      29.67F
EASTON*        CLOUDY    31  29  94 N14G20    29.72F WCI  21

$$

MDZ017>025-270600-
SOUTHERN MARYLAND

CITY           SKY/WX    TMP DP  RH WIND       PRES   REMARKS
PATUXENT RIVER CLOUDY    30  26  85 N14       29.69S WCI  19
ST INIGOES     LGT SNOW  31  26  82 VRB5      29.68F
LEONARDTOWN*   CLOUDY    30  27  86 NW7       29.71S

$$

MDZ003>005-270600-
NORTH CENTRAL MARYLAND

CITY           SKY/WX    TMP DP  RH WIND       PRES   REMARKS
FREDERICK*     LGT SNOW  28  25  86 NE3       29.81S
HAGERSTOWN APT CLOUDY    25  22  88 NW6       29.77F
WESTMINSTER*   LGT SNOW  25  21  86 N8        29.73S WCI  16

$$

MDZ501>502-270600-
WESTERN MARYLAND

CITY           SKY/WX    TMP DP  RH WIND       PRES   REMARKS
OAKLAND*       CLOUDY    18 N/A N/A NW5       29.69R FOG
CUMBERLAND*    CLOUDY    28  27  93 CALM      29.84S

$$

VAZ025>031-270600-
SHENANDOAH VALLEY

CITY           SKY/WX    TMP DP  RH WIND       PRES   REMARKS
WINCHESTER*    FLURRIES  28  21  74 NW6       29.77F
FRONT ROYAL*   CLOUDY    27  23  86 CALM      29.77S
LURAY*         LGT SNOW  28  28 100 NE5       29.76S
NEW MARKET*    CLOUDY    28  26  91 N3        29.75S
STAUNTON*      CLOUDY    30  27  90 CALM      29.74S
WAYNESBORO*    CLOUDY    28  27  95 N6        29.71S

$$

WVZ021-048>050-054>055-270600-
EASTERN WEST VIRGINIA PANHANDLE

CITY           SKY/WX    TMP DP  RH WIND       PRES   REMARKS
MARTINSBURG    CLOUDY    27  21  78 NW9       29.78F WCI  18
PETERSBURG*    LGT SNOW  29  29 100 CALM      29.79S

$$

VAZ036>039-050-270600-
CENTRAL FOOTHILLS

CITY           SKY/WX    TMP DP  RH WIND       PRES   REMARKS
CHARLOTTESVILL CLOUDY    31  28  89 NE6       29.71F
CULPEPER*      CLOUDY    28  25  86 N10       29.75S WCI  19
ORANGE*        CLOUDY    30  28  93 N8        29.74S WCI  23
GORDONSVILLE*  CLOUDY    29  25  84 NE3       29.72S
WARRENTON*     CLOUDY    29  28  96 N9        29.74F WCI  21

$$

VAZ055>057-270600-
NORTH AND CENTRAL PIEDMONT

CITY           SKY/WX    TMP DP  RH WIND       PRES   REMARKS
FREDERICKSBRG* LGT SNOW  31  31  99 N7        29.74S
STAFFORD*      MOCLDY    28  28 100 CALM      29.78S

$$

NCZ024-NYZ072-PAZ021-071-VAZ022-071-270600-
OTHER REGIONAL OBSERVATIONS

CITY           SKY/WX    TMP DP  RH WIND       PRES   REMARKS
NEW YORK CITY  LGT SNOW  25  19  78 N12G23    29.71F VSB 3/4 WCI  14
PHILADELPHIA   CLOUDY    29  21  72 N17G23    29.71S WCI  17
PITTSBURGH     FLURRIES  20  16  84 NW12      29.84S WCI   8
ROANOKE        CLOUDY    32  22  66 NW14      29.77S WCI  22
RICHMOND       FLURRIES  32  28  85 N15       29.71R WCI  22
RALEIGH        LGT RAIN  41  33  73 N6        29.70R

$$

ANZ530>537-270600-
MARINE OBSERVATIONS

STATION/POSITION TIME  TEMP    WIND        PRES
                       AIR SEA DIR/SP/G
                 (UTC) (F)     (DEG/KT/KT) (MB)
THOMAS PT LIGHT  0500   29 37  340/ 15/ 17 1007.1F
BALT KEY BRIDGE  0500   27     330/ 14/ 16 1006.9F
COVE POINT       0500   29     360/ 23/ 25 1005.1F
LEWISETTA        0500   32 39  340/ 12/ 18 1005.1R
SOLOMONS ISLAND  0500      39                N/A
PINEY POINT      0500          360/ 17/ 18   N/A

$$



USA.gov is the U.S. government's official web portal to all federal, state and local government web resources and services.